Lid_Strength_Index
-1 -1 -0 2 7 6 8 7 5 6 6 4 4 5 6 5 7 10 0 -0 -1 -1 -1 -1 -1 -1 -1 -1 -1 -1 -1 -1 -1 -1 -1 -1 -1 -1 -1 -1 -1 -1 -1 -1 -1 -1 -1 -1 -1
-1 -0 1 3 7 9 8 6 7 6 5 4 4 5 5 7 3 3 2 -0 -1 -1 -1 -2 -1 -1 -1 -1 -1 -1 -1 -1 -1 -1 -1 -1 -1 -1 -1 -1 -1 -1 -1 -1 -1 -1 -1 -1 -1
-0 -0 4 6 7 9 9 6 6 5 4 4 5 3 4 5 2 2 0 -1 -1 -1 -1 -2 -1 -1 -1 -1 -1 -1 -1 -1 -1 -1 -1 -1 -1 -1 -1 -1 -1 -1 -1 -1 -1 -1 -1 -1 -1
1 2 3 7 8 7 6 5 5 5 4 3 4 6 3 1 2 1 -0 -1 -0 -1 -1 -2 -1 -1 -1 -1 -1 -1 -1 -1 -1 -1 -1 -1 -1 -1 -1 -1 -1 -1 -1 -1 -1 -1 -1 -1 -1
1 3 6 7 7 6 5 4 4 5 5 4 4 6 5 2 0 -0 -0 -1 -0 -1 -1 -1 -1 -1 -1 -1 -1 -1 -1 -1 -1 -1 -1 -1 -1 -1 -1 -1 -1 -1 -1 -1 -1 -1 -2 -2 -1
3 3 7 10 7 6 5 4 4 4 4 4 4 5 4 1 1 0 -0 -0 -1 -1 -1 -1 -1 -1 -1 -1 -1 -1 -1 -1 -1 -1 -1 -1 -1 -1 -1 -1 -1 -1 -1 -1 -1 -1 -2 -2 -1
4 5 7 7 7 7 5 4 5 4 4 4 3 5 4 2 1 -0 -0 -1 -1 -1 -1 -1 -2 -2 -1 -1 -1 -1 -1 -1 -1 -1 -1 -1 -1 -1 -1 -1 -1 -2 -2 -2 -1 -2 -2 -2 -2
3 4 7 6 8 7 4 4 4 4 4 2 3 6 5 2 0 0 -0 -0 -0 -1 -1 -1 -1 -1 -2 -2 -2 -1 -1 -1 -1 -1 -1 -1 -2 -3 -2 -4 -2 -2 -2 -3 -3 -3 -3 -3 -2
2 6 7 7 8 6 4 5 3 2 3 3 3 3 2 1 0 1 1 0 0 -0 -1 -1 -1 -1 -1 -1 -1 -1 -1 -2 -2 -2 -2 -3 -2 -2 -2 -3 -2 -2 -2 -2 -3 -3 -3 -4 -4
4 6 6 4 4 5 4 5 4 5 4 4 3 2 1 1 1 2 2 2 1 1 0 -1 -1 -1 -1 -1 -2 -2 -2 -2 -2 -2 -2 -2 -2 -2 -2 -3 -3 -3 -3 -4 -5 -4 -3 -3 -1
4 6 5 4 4 4 4 4 3 5 8 4 4 3 2 2 2 2 2 1 1 0 -0 -1 -1 -1 -1 -1 -1 -1 -1 -1 -2 -2 -2 -3 -2 -2 -2 -1 -1 -2 -3 -1 -2 -2 -1 -1 -1
5 4 4 4 4 4 5 4 4 4 6 2 2 2 2 2 2 2 2 1 1 1 0 -0 -1 -1 -1 -1 -1 -1 -1 -1 -1 -1 -2 -2 -1 -2 -1 -1 -1 -2 -1 -1 -1 -1 -2 -2 -2
5 4 4 4 4 4 3 4 4 4 3 2 2 2 2 2 2 1 1 1 1 1 0 -0 -1 -1 -1 -1 -1 -1 -1 -1 -2 -2 -2 -2 -1 -1 -1 -2 -1 -1 -1 -1 -0 -0 -1 -1 -1
4 4 4 4 4 4 4 4 4 4 2 3 3 3 2 2 2 2 2 1 1 1 0 -0 -0 -1 -1 -1 -1 -1 -1 -2 -1 -2 -2 -2 -2 -2 -1 -0 -1 -1 -1 -1 -1 -1 -1 -1 -1
4 5 4 4 4 4 4 5 6 3 3 3 3 3 3 2 2 2 1 1 1 0 0 0 -0 -1 -1 -1 -1 -1 -2 -1 -1 -2 -2 -2 -2 -2 -2 0 -0 -0 -2 -2 -1 -1 -1 -0 -0
5 5 7 5 4 4 4 8 6 3 3 4 3 3 3 2 2 1 1 1 0 0 0 -0 -1 -1 -1 -1 -1 -1 -1 -2 -2 -2 -2 -2 -2 -1 -1 -1 -1 -2 -2 -1 -1 -1 -0 -0 -0
6 9 7 6 4 5 5 7 4 3 3 4 3 3 3 3 2 1 1 1 1 0 0 0 0 -0 -1 -1 -1 -2 -2 -1 -1 -2 -1 -2 -2 -1 -2 -1 -1 -2 -1 -1 -1 -0 -0 0 0
9 8 7 7 5 5 6 6 4 4 4 4 3 4 3 3 3 2 1 1 0 0 -0 -0 -0 -1 -1 -1 -1 -1 -1 -1 -1 -1 -1 -1 -2 -2 -2 -1 -2 -2 -1 -0 -1 -0 -0 -0 0
6 7 7 6 5 6 6 6 5 4 4 4 4 4 4 3 2 2 1 1 1 1 0 0 -0 -1 -0 0 0 0 1 -0 -1 -1 -2 -2 -2 -2 -2 -1 -1 -1 -1 -0 -1 -0 -0 1 0
6 7 8 6 5 5 6 6 5 4 5 4 4 4 4 3 3 2 2 1 1 1 1 0 -0 -1 -0 -0 -0 -0 0 -0 -1 -1 -2 -2 -2 -2 -2 -1 -1 -1 -0 -0 -0 -0 1 1 0
7 7 7 7 6 5 6 7 6 5 4 4 4 4 3 3 3 2 2 1 1 1 1 0 -0 -0 -1 -1 -1 -0 -0 -0 0 -1 -0 -1 -2 -2 -2 -2 -1 -1 -1 0 -0 0 0 2 1
8 6 6 7 7 9 6 10 7 6 5 5 4 4 3 3 2 2 2 2 1 1 0 0 -0 -0 -1 -1 -0 -0 1 2 0 0 -1 -1 -2 -2 -2 -2 -2 -1 -1 -0 -0 -0 -0 0 2
7 5 6 6 7 8 8 9 9 6 7 6 5 4 3 2 2 2 2 2 1 1 1 -0 -0 -0 -0 -0 -0 0 0 0 -0 -0 -1 -1 -1 -2 -1 -2 -2 -1 -0 -1 -0 -0 0 0 1
5 6 6 6 7 11 9 9 9 8 6 5 4 4 3 3 2 2 1 1 1 0 0 0 0 0 -0 -0 -0 -0 0 0 1 0 1 0 -0 -1 -1 -1 -1 -1 -1 -0 -0 -1 -0 0 0
5 7 10 11 11 12 8 9 9 6 5 5 4 3 3 2 2 2 2 2 1 1 1 0 1 1 -0 -0 -0 -0 -0 -0 -0 -0 0 0 0 0 -1 -1 -1 -1 -1 -1 -0 -0 0 0 1
6 7 10 14 13 11 8 10 9 5 4 4 3 3 3 2 2 2 2 2 1 1 1 1 1 1 -0 -0 -0 -1 -0 -0 -0 -0 0 0 0 -0 -1 -1 -1 -1 -1 -1 -0 0 0 -0 1
7 10 6 10 9 11 9 8 6 5 5 4 4 3 3 3 3 2 2 2 1 1 2 1 0 0 -0 -0 -1 -0 -1 -1 -0 -1 -1 -0 -1 -1 -1 -1 -1 -0 -1 -0 0 0 1 0 2
6 5 9 8 13 14 10 10 10 7 6 5 4 4 3 3 2 2 2 1 1 1 1 0 0 0 -0 -0 -0 -0 -0 -1 -0 -1 -0 -1 -1 -1 -1 -1 -0 -1 0 1 0 1 1 2 1
8 9 8 8 9 12 13 10 6 6 5 5 4 4 3 3 3 2 2 1 1 1 1 0 0 0 0 -0 0 0 -0 -0 -0 -0 -0 -1 -1 -1 -0 -0 -0 1 1 0 1 1 2 1 0
5 7 7 10 11 9 10 11 5 5 4 4 4 4 3 3 2 2 2 1 1 1 1 1 0 0 0 0 0 -0 -0 -0 0 -0 -1 -0 -0 -1 -0 -0 2 1 1 1 2 2 1 1 1